Torna al catalogo

NOAA 17 DEB

LostPO
NORAD 49489·DEBRIS·🇺🇸 United States

Lanciato Jun 24, 2002 da Vandenberg Space Force Base

Loading…

Prossimi Passaggi (prossime 24 ore)

TLE

ObsoletoSource: Space-Track

Epoca: Jul 14, 2026, 10:26 UTC

1 49489U 02032DT  26195.43530430  .00221844  00000-0  46735-2 0  9994
2 49489  98.7533 269.9060 0018746 226.9238 133.0437 15.44232868261699

Traccia NOAA 17 DEB in tempo reale con AllMySat

Download on the App Store